Regional Weather Roundup
Issued by NWS Wakefield, VA

Home | Current Version | Previous Version | Graphics & Text | Print | Product List | Glossary On
Versions: 1 2 3 4 5 6 7 8 9 10 11 12 13 14 15 16 17 18 19 20 21 22 23 24 25 26 27
000
ASUS41 KAKQ 271715
RWRAKQ

REGIONAL WEATHER ROUNDUP
NATIONAL WEATHER SERVICE WAKEFIELD VA
100 PM EDT SAT AUG 27 2016

Note: "fair" indicates few or no clouds below 12,000 feet with no
significant weather and/or obstructions to visibility. * = Denotes
station may not report precipitation (e.g., rain,snow,etc.),
thunder or fog.

VAZ042-051-052>054-056-271800-
NORTHERN VIRGINIA

CITY           SKY/WX    TMP DP  RH WIND       PRES   REMARKS
WASH NATIONAL  MOSUNNY   89  66  46 SE8       30.17F
DULLES         MOSUNNY   88  63  43 E9        30.18F
FORT BELVOIR   SUNNY     88  64  45 SE7       30.17F
QUANTICO       SUNNY     89  67  47 SE6       30.17
FREDERICKSBRG*   N/A     90  69  50 E6        30.16F
STAFFORD*      SUNNY     90  64  42 E6        30.21F
WARRENTON      MOSUNNY   90  61  38 E5        30.18F
CULPEPER*      MOSUNNY   89  69  52 NE3       30.18F
MANASSAS*      SUNNY     90  66  45 SE6G16    30.18F
LEESBURG*      MOSUNNY   90  66  45 SE3       30.19F
WINCHESTER     MOSUNNY   88  68  51 SE6       30.19F
FRONT ROYAL*   FAIR      86  70  58 E6        30.18F
LURAY*         PTSUNNY   86  68  54 S6        30.19F
$$

VAZ048-049-060>072-079>083-271800-
CENTRAL AND SOUTH CENTRAL VIRGINIA

CITY           SKY/WX    TMP DP  RH WIND       PRES   REMARKS
RICHMOND       MOSUNNY   91  65  41 VRB7      30.15S
CHESTERFIELD*  FAIR      93  61  33 E8        30.16S
PETERSBURG*    MOSUNNY   92  67  42 N9        30.15S HX  95
HANOVER        SUNNY     89  67  47 VRB3      30.18S
TAPPAHANNOCK*  SUNNY     90  62  40 NE8       30.17S
QUINTON*       FAIR      90  67  46 E5        30.15S
CHARLOTTSVILLE MOSUNNY   88  68  51 NE9       30.18F
GORDONSVILLE*  FAIR      90  72  55 SE5       30.17F HX  96
ORANGE*          N/A     90  68  48 CALM      30.19F
LOUISA*        SUNNY     91  72  52 E6        30.17F HX  98
BUMPASS*       FAIR      89  69  50 E8        30.17F
FARMVILLE*     MOSUNNY   92  73  52 E6        30.14F HX 101
CREWE*         FAIR      89  73  59 NE5       30.15S HX  97
FORT PICKETT*  NOT AVBL
CHASE CITY*    CLOUDY    90  72  55 E5        30.14S HX  97
CLARKSVILLE*   FAIR      91  75  59 NE6       30.13S HX 102
SOUTH HILL*    CLOUDY    89  75  63 CALM      30.19S HX  98
LAWRENCEVILLE* FAIR      91  74  55 E5        30.13F HX 100
EMPORIA*       MOSUNNY   91  72  52 N7        30.14S HX  98
$$

VAZ088>098-271800-
SOUTHEAST VIRGINIA

CITY           SKY/WX    TMP DP  RH WIND       PRES   REMARKS
NORFOLK        SUNNY     85  75  72 NE12      30.13S
VIRGINIA BEACH MOSUNNY   92  74  55 VRB7G18   30.12S HX 101
NORFOLK NAVAL  MOSUNNY   88  74  63 NE12      30.15R HX  96
WEST POINT*    SUNNY     91  64  41 NE9       30.16S
SALUDA*        FAIR      86  74  68 NE7       30.15S
NEWPORT NEWS   SUNNY     89  71  55 E14       30.14R HX  95
LANGLEY AFB    SUNNY     88  73  61 NE12      30.13S HX  96
FORT EUSTIS    SUNNY     94  66  39 E7        30.12R HX  97
WILLIAMSBURG*  SUNNY     97  66  36 CALM      30.15R HX 100
HR EXEC AP*    FAIR      93  70  46 E12G17    30.14S HX  99
FRANKLIN*      MOSUNNY   92  69  47 NE9G16    30.13R HX  96
US460-WAKEFLD  MOSUNNY   91  68  46 NE9       30.13S HX  95
$$

VAZ020-022-025-037-045-271800-
WEST CENTRAL AND SOUTHWEST VIRGINIA

CITY           SKY/WX    TMP DP  RH WIND       PRES   REMARKS
STAUNTON*      MOSUNNY   85  70  59 CALM      30.23S
WAYNESBORO*    FAIR      85  68  56 E7        30.22F
HOT SPRINGS VA MOSUNNY   79  67  66 SE7       30.35S
LYNCHBURG      PTSUNNY   87  73  62 NE8       30.19F
DANVILLE       SUNNY     91  75  59 NE7       30.14F HX 101
SOUTH BOSTON*  PTSUNNY   91  73  56 E3        30.13F HX  99
MARTINSVILLE   MOSUNNY   89  73  59 SE5       30.19F HX  97
ROANOKE        MOSUNNY   87  72  60 SE3       30.21F
BLACKSBURG     CLOUDY    84  73  67 NE7       30.28S
DUBLIN*        MOSUNNY   85  73  66 CALM      30.26S
MARION*        PTSUNNY   87  70  57 E9        30.28F
HILLSVILLE*    PTSUNNY   82  71  70 CALM      30.26F
RICHLANDS*     FAIR      85  71  63 SE8       30.25F
WISE*          SUNNY     86  54  32 E3        30.26S
ABINGDON*      SUNNY     89  66  47 CALM      30.22S
$$

MDZ021>025-VAZ099-100-271800-
SOUTHERN MARYLAND AND THE DELMARVA PENINSULA

CITY           SKY/WX    TMP DP  RH WIND       PRES   REMARKS
PATUXENT RIVER MOSUNNY   87  64  46 SE7       30.16F
BAY BRIDGE APT SUNNY     88  68  51 E5        30.18S
LEONARDTOWN    SUNNY     86  63  45 NE8       30.19S
DOVER          SUNNY     85  69  58 VRB5      30.16S
GEORGETOWN     NOT AVBL
EASTON         SUNNY     90  72  55 E9        30.20F HX  96
CAMBRIDGE      SUNNY     86  63  45 E6        30.16F
SALISBURY      SUNNY     88  61  40 E10       30.15F
OCEAN CITY     SUNNY     83  70  64 NE13      30.16S
WALLOPS ISLAND SUNNY     86  60  41 NE13      30.16R
ACCOMACK*      SUNNY     89  61  39 E12       30.15S
$$

NCZ012>017-030>032-271800-
NORTH CENTRAL AND EASTERN NORTH CAROLINA

CITY           SKY/WX    TMP DP  RH WIND       PRES   REMARKS
ROANOKE RAPIDS FAIR      91  73  55 E6        30.12S HX 100
RALEIGH        MOSUNNY   94  70  45 E9        30.12F HX 100
ELIZABETH CITY MOSUNNY   91  71  51 NE10      30.11S HX  97
AHOSKIE*       SUNNY     90  73  56 E6        30.12S HX  98
EDENTON*       CLOUDY    90  76  63 S7        30.12R HX 100
CURRITUCK*       N/A     88  74  63 NE9       30.13R HX  96
KILL DEVIL HLS SUNNY     89  80  74 N8        30.10S HX 106
MANTEO         SUNNY     86  75  69 E6        30.11S HX  95
CAPE HATTERAS  SUNNY     88  74  63 VRB3      30.11S HX  96
TARBORO*       FAIR      92  77  60 CALM      30.12S HX 105
GOLDSBORO      SUNNY     92  75  57 VRB3      30.10F HX 102
WASHINGTON     SUNNY     90  75  62 N3        30.10F HX 100
GREENVILLE     MOSUNNY   95  73  49 SE5       30.12S HX 105
NEW BERN       SUNNY     91  75  59 NW6       30.11F HX 101
WILMINGTON     SUNNY     89  73  59 E7        30.10F HX  97
$$

VAZ048-271800-
ELSEWHERE

CITY           SKY/WX    TMP DP  RH WIND       PRES   REMARKS
HARRISBURG PA  CLOUDY    87  70  56 CALM      30.18F
BALTIMORE      MOSUNNY   86  65  49 E9        30.18S
ANNAPOLIS      SUNNY     85  68  56 E8        30.18S
ANDREWS AFB    SUNNY     87  65  47 E8        30.18S
PHILADELPHIA   MOSUNNY   89  59  36 E12       30.17F
HENDERSON NC   SUNNY     87  73  62 NE3       30.14S
GREENSBORO     MOSUNNY   91  73  55 VRB6      30.14F HX  99
ROCKY MOUNT    SUNNY     92  75  57 VRB3      30.11F HX 103
$$

VAZ100-271800-
MARINE

STATION/POSITION TIME  TEMP    WIND        PRES    WAVE   SWELL
                       AIR SEA DIR/SP/G            HT/PER HT/PER
                 (UTC) (F)     (DEG/KT/KT) (MB)    (FT/S) (FT/S)
BRANDYWINE LGT   1600   80      10/  6/  6   N/A
CAPE MAY NJ      1600   83 76   80/  8/ 10 1021.0F
LEWES DE         1600   77 77   70/ 14/ 17 1021.5F
OCEAN-CITY-INLET 1600   80 76   50/  5/ 11 1021.5F
WACHAPREAGUE VA  1600   83 84   50/ 12/ 16 1020.7F
THOMAS POINT MD  1700   83 83   80/  3/  4 1023.2F
GOOSES REEF MD   1600   84 83   70/  8/ 10 1022.3R   1/ 2
COVE POINT MD    1600   83     100/  8/ 10 1022.2S
SOLOMONS ISLAND  1600   83 85   60/  7/  9   N/A
PINEY POINT MD   1600          100/ 10/ 11   N/A
POTOMAC MD       1600   83 83   70/  8/ 10 1020.4S   1/ 3
CAMBRIDGE MD     1600   84 84   60/  8/ 11 1020.7F
LEWISETTA VA     1600   83 84  110/  8/  9 1021.2R
RAPPAHANNOCK LGT 1600           70/ 11/ 12 1021.2F
STINGRAY PT      1600   83 84  340/  8/ 10 1021.4F   1/ 3
YORK RVR RNG VA  1600   83      60/  9/ 10 1020.1F
YORKTOWN VA      1600   84 83   90/ 11/ 12 1020.2F
JAMESTOWN VA     1600   88 86   30/  6/ 12   N/A     0
DOMINION TERM VA 1600   84      90/  9/ 12 1020.4F
KIPTOPEKE VA     1600      81   90/  9/ 13   N/A
CHES BAY BRIDGE  1600   80 81   40/ 14/ 16 1020.1F
CAPE HENRY VA    1600   79      30/ 11/ 14   N/A
WILLOUBY STN VA  1600   82      60/  9/ 10   N/A
CAPE HENRY BUOY  1612      80                N/A     2/ 8
1ST LANDING BUOY 1600   80 80   60/ 12/ 14 1019.9F   2/ 3
CAPE CHARLES BUO 1626      78                N/A     3/10
OFFSHORE WE BUOY 1621      80                N/A     3/11   2/11
64NM E OF VA BCH 1650   81 81   40/ 10/ 12 1019.2S   2/10   2/10
DUCK PIER NC     1600   79 62   10/  5/  5 1019.2F
44100 DUCK FRF   1605      80                N/A     2/ 9
44056 DUCK FRF   1611      79                N/A     2/10   2/11
OREGON INLET NC  1600   83 82   10/  9/ 12 1019.4F
HATTERAS NC      1600   83 83  360/  4/  5 1019.3F
DIAMOND SHLS NC  1650   82 85   20/  6/  8 1019.4F   2/ 9   2/ 9
CAPE LOOKOUT NC  1600   84      70/  5/  6 1019.2F
$$




USA.gov is the U.S. government's official web portal to all federal, state and local government web resources and services.